Location: Enikep?du
(16.5133°N, 80.7066°E)
Time: 02:23:55
(UTC+00:00)

Cosmos 1726 Rocket - Pass Details

Date: 20 January 2020
Orbit: 602 x 631 km, 82.5° (Epoch: 19 February)

Event Time Altitude Azimuth Distance (km) Brightness Sun altitude
Rises 00:17:39 0° 187° (S) 2,907 7.2 -12.5°
Reaches altitude 10° 00:19:53 10° 188° (S) 2,002 6.3 -12.0°
Maximum altitude 00:24:19 77° 274° (W) 649 3.5 -11.0°
Drops below altitude 10° 00:28:45 10° 1° (N) 2,002 6.0 -10.0°
Sets 00:30:59 0° 2° (N) 2,907 6.8 -9.5°
